Clarksburg, WV

3:13 AM EDT on September 17, 2019 (GMT -0400)
Benedum

Weather History for KCKB - August, 2019

Change the Weather History Date:

Tuesday, August 20, 2019

  Actual Average Record
Temperature  
Mean Temperature 80 °F -  
Max Temperature 91 °F 82 °F 96 °F (1959)
Min Temperature 70 °F 60 °F 46 °F (1932)
Cooling Degree Days 16    
Growing Degree Days 30 (Base 50)    
Moisture  
Dew Point 68 °F    
Average Humidity 77    
Maximum Humidity 90    
Minimum Humidity 48    
Precipitation  
Precipitation 0.44 in - - ()
Sea Level Pressure  
Sea Level Pressure 30.06 in    
Wind  
Wind Speed 3 mph ()    
Max Wind Speed 26 mph    
Max Gust Speed 41 mph    
Visibility 7.8 miles    
Events Rain , Thunderstorm    
Averages and records for this station are not official NWS values.
T = Trace of Precipitation, MM = Missing Value Source: Averaged Metar Reports

Daily Weather History Graph

Daily Weather History Graph

Search for Another Location

Airport or City:

Astronomy

Aug. 20, 2019 Rise Set
Actual Time 6:38 AM EDT 8:09 PM EDT
Civil Twilight 6:09 AM EDT 8:38 PM EDT
Nautical Twilight 5:35 AM EDT 9:11 PM EDT
Astronomical Twilight 4:59 AM EDT 9:47 PM EDT
Moon 10:59 PM EDT (8/20) 11:13 AM EDT (8/20)
Length of Visible Light 14h 28m
Length of Day
13h 31m
Waning Gibbous, 78% of the Moon is Illuminated
Aug 20
Waning Gibbous
Aug 23
Last Quarter
Aug 30
New
Sep 5
First Quarter
Sep 14
Full

Hourly Weather History & Observations

Time (EDT) Temp. Heat Index Dew Point Humidity Pressure Visibility Wind Dir Wind Speed Gust Speed Precip Events Conditions
12:53 AM 73.0 °F - 69.1 °F 87% 30.06 in 10.0 mi Calm Calm - N/A   Clear
1:53 AM 73.0 °F - 69.1 °F 87% 30.06 in 10.0 mi Calm Calm - N/A   Clear
2:53 AM 72.0 °F - 68.0 °F 87% 30.05 in 7.0 mi Calm Calm - N/A   Clear
3:53 AM 71.1 °F - 68.0 °F 90% 30.05 in 7.0 mi Calm Calm - N/A   Partly Cloudy
4:53 AM 71.1 °F - 66.9 °F 87% 30.04 in 8.0 mi Calm Calm - N/A   Clear
5:32 AM 70.0 °F - 66.9 °F 90% 30.10 in 2.0 mi Calm Calm - N/A   Clear
5:42 AM 71.1 °F - 68.0 °F 90% 30.10 in 5.0 mi Calm Calm - N/A   Clear
5:53 AM 70.0 °F - 66.9 °F 90% 30.05 in 6.0 mi Calm Calm - N/A   Clear
6:53 AM 70.0 °F - 66.9 °F 90% 30.07 in 6.0 mi Calm Calm - N/A   Clear
7:53 AM 73.0 °F - 69.1 °F 87% 30.07 in 6.0 mi Calm Calm - N/A   Clear
8:53 AM 78.1 °F - 69.1 °F 74% 30.08 in 10.0 mi Calm Calm - N/A   Clear
9:27 AM 77.0 °F - 69.1 °F 76% 30.15 in 10.0 mi WNW 10.4 mph - N/A Thunderstorm Overcast
9:46 AM 75.0 °F - 70.0 °F 84% 30.16 in 1.8 mi NW 10.4 mph - 0.07 in Rain , Thunderstorm Heavy Thunderstorms and Rain
9:48 AM 75.2 °F - 69.8 °F 83% 30.16 in 1.0 mi West 11.5 mph 17.3 mph 0.12 in Rain , Thunderstorm Heavy Thunderstorms and Rain
9:53 AM 73.9 °F - 70.0 °F 87% 30.12 in 0.8 mi NW 11.5 mph 17.3 mph 0.21 in Rain , Thunderstorm Heavy Thunderstorms and Rain
9:56 AM 73.9 °F - 70.0 °F 87% 30.17 in 8.0 mi NW 12.7 mph - 0.01 in Rain , Thunderstorm Heavy Rain
10:40 AM 73.9 °F - 69.1 °F 85% 30.14 in 8.0 mi NE 4.6 mph - 0.01 in   Partly Cloudy
10:53 AM 73.9 °F - 69.1 °F 85% 30.09 in 8.0 mi East 8.1 mph - 0.01 in   Clear
11:53 AM 77.0 °F - 70.0 °F 79% 30.10 in 10.0 mi SSW 3.5 mph - N/A   Clear
12:32 PM 79.0 °F - 69.1 °F 72% 30.14 in 10.0 mi SSE 5.8 mph - N/A Thunderstorm Clear
12:53 PM 79.0 °F - 69.1 °F 72% 30.10 in 10.0 mi WSW 3.5 mph - N/A   Mostly Cloudy
1:53 PM 81.0 °F 84.4 °F 70.0 °F 69% 30.06 in 10.0 mi NE 4.6 mph - 0.05 in   Clear
2:53 PM 84.9 °F 89.4 °F 70.0 °F 61% 30.04 in 10.0 mi Calm Calm - N/A   Clear
3:53 PM 90.0 °F 93.6 °F 68.0 °F 48% 30.01 in 10.0 mi Calm Calm - N/A   Clear
4:53 PM 91.0 °F 95.6 °F 69.1 °F 48% 29.99 in 10.0 mi Calm Calm - N/A   Clear
5:53 PM 90.0 °F 93.6 °F 68.0 °F 48% 29.98 in 10.0 mi North 3.5 mph - N/A   Clear
6:53 PM 86.0 °F 92.2 °F 72.0 °F 63% 29.98 in 10.0 mi Calm Calm - N/A   Clear
7:53 PM 84.9 °F 89.4 °F 70.0 °F 61% 29.96 in 10.0 mi SE 5.8 mph - N/A   Clear
8:53 PM 79.0 °F - 71.1 °F 77% 29.94 in 10.0 mi ENE 3.5 mph - N/A   Clear
9:53 PM 82.0 °F 84.9 °F 68.0 °F 62% 29.94 in 10.0 mi ESE 5.8 mph - N/A   Clear
10:21 PM 80.1 °F 82.9 °F 69.1 °F 69% 30.06 in 10.0 mi WSW 26.5 mph 41.4 mph N/A Thunderstorm Mostly Cloudy
10:30 PM 77.0 °F - 66.0 °F 69% 30.07 in 10.0 mi WSW 24.2 mph 33.4 mph N/A Thunderstorm Thunderstorm
10:39 PM 73.0 °F - 64.9 °F 76% 30.07 in 9.0 mi WSW 19.6 mph 29.9 mph 0.01 in Rain , Thunderstorm Light Thunderstorms and Rain
10:53 PM 71.1 °F - 64.9 °F 81% 30.02 in 2.5 mi SW 6.9 mph - 0.06 in Rain , Thunderstorm Light Thunderstorms and Rain
11:10 PM 72.0 °F - 64.9 °F 78% 30.07 in 10.0 mi Calm Calm - 0.06 in Rain , Thunderstorm Light Thunderstorms and Rain
11:40 PM 72.0 °F - 66.0 °F 81% 30.08 in 8.0 mi SE 3.5 mph - 0.09 in Rain , Thunderstorm Light Rain
11:48 PM 71.6 °F - 66.2 °F 83% 30.08 in 6.0 mi SSE 5.8 mph - 0.11 in Rain Light Rain
11:53 PM 72.0 °F - 66.9 °F 84% 30.03 in 8.0 mi SSE 6.9 mph - 0.11 in Rain Light Rain